Orange City, IA

8:36 PM CDT on May 28, 2017 (GMT -0500)
Orange City Municipal

Weather History for KORC - March, 2014

Change the Weather History Date:

Saturday, March 1, 2014

  Actual Average Record
Temperature  
Mean Temperature 2 °F -  
Max Temperature 10 °F 31 °F 62 °F (1999)
Min Temperature -5 °F 17 °F -5 °F (2014)
Degree Days  
Heating Degree Days 62    
Moisture  
Dew Point -8 °F    
Average Humidity 69    
Maximum Humidity 79    
Minimum Humidity 55    
Precipitation  
Precipitation 0.00 in - - ()
Sea Level Pressure  
Sea Level Pressure 30.38 in    
Wind  
Wind Speed 11 mph (North)    
Max Wind Speed 15 mph    
Max Gust Speed 21 mph    
Visibility 5 miles    
Events Snow    
Averages and records for this station are not official NWS values.
T = Trace of Precipitation, MM = Missing Value Source: NWS Daily Summary

Daily Weather History Graph

Daily Weather History Graph

Search for Another Location

Airport or City:

Trip Planner

Search our weather history database for the weather conditions in past years. The results will help you decide how hot, cold, wet, or windy it might be!

Date:

Astronomy

Mar. 01, 2014 Rise Set
Actual Time 7:00 AM CST 6:13 PM CST
Civil Twilight 6:31 AM CST 6:42 PM CST
Nautical Twilight 5:58 AM CST 7:14 PM CST
Astronomical Twilight 5:26 AM CST 7:47 PM CST
Moon 6:53 AM CST (3/1) 7:04 PM CST (3/1)
Length of Visible Light 12h 10m
Length of Day
11h 13m
New Moon, 0% of the Moon is Illuminated
Mar 1
New Moon
Mar 8
First Quarter
Mar 16
Full
Mar 23
Last Quarter
Mar 30
New

Hourly Weather History & Observations

Time (CST) Temp. Windchill Dew Point Humidity Pressure Visibility Wind Dir Wind Speed Gust Speed Precip Events Conditions
12:15 AM 10.4 °F -4.8 °F 1.4 °F 67% 30.18 in 10.0 mi North 12.7 mph 18.4 mph N/A   Overcast
12:35 AM 8.6 °F -5.5 °F 3.2 °F 79% 30.17 in 3.0 mi North 10.4 mph 19.6 mph N/A Snow Light Snow
12:55 AM 8.6 °F -8.3 °F 3.2 °F 79% 30.19 in 7.0 mi North 15.0 mph 18.4 mph N/A Snow Light Snow
1:15 AM 8.6 °F -5.5 °F 1.4 °F 73% 30.22 in 4.0 mi North 10.4 mph 18.4 mph N/A Snow Light Snow
1:35 AM 8.6 °F -6.3 °F 1.4 °F 73% 30.23 in 4.0 mi North 11.5 mph 16.1 mph N/A Snow Light Snow
1:55 AM 6.8 °F -6.9 °F -0.4 °F 72% 30.24 in 7.0 mi North 9.2 mph - N/A   Overcast
2:15 AM 6.8 °F -10.0 °F -0.4 °F 72% 30.24 in 10.0 mi North 13.8 mph 19.6 mph N/A Snow Light Snow
2:35 AM 6.8 °F -9.3 °F -2.2 °F 67% 30.22 in 10.0 mi North 12.7 mph 19.6 mph N/A   Mostly Cloudy
2:55 AM 6.8 °F -8.6 °F -0.4 °F 72% 30.23 in 10.0 mi North 11.5 mph 20.7 mph N/A   Overcast
3:15 AM 6.8 °F -7.8 °F -2.2 °F 67% 30.23 in 7.0 mi North 10.4 mph 17.3 mph N/A Snow Light Snow
3:35 AM 5.0 °F -12.3 °F -2.2 °F 72% 30.24 in 3.0 mi North 13.8 mph 19.6 mph N/A Snow Light Snow
3:55 AM 3.2 °F -11.3 °F -2.2 °F 78% 30.24 in 2.0 mi NNE 9.2 mph 18.4 mph N/A Snow Light Snow
4:15 AM 3.2 °F -10.3 °F -4.0 °F 72% 30.26 in 4.0 mi North 8.1 mph - N/A Snow Light Snow
4:35 AM 3.2 °F -13.9 °F -5.8 °F 66% 30.27 in 7.0 mi North 12.7 mph 19.6 mph N/A Snow Light Snow
4:55 AM 3.2 °F -14.6 °F -5.8 °F 66% 30.27 in 3.0 mi NNE 13.8 mph 17.3 mph N/A Snow Light Snow
5:15 AM 1.4 °F -14.5 °F -5.8 °F 72% 30.28 in 2.5 mi NNE 10.4 mph 19.6 mph N/A Snow Light Snow
5:35 AM 1.4 °F -15.3 °F -4.0 °F 78% 30.29 in 1.8 mi NNE 11.5 mph 16.1 mph N/A Snow Light Snow
5:55 AM 1.4 °F -16.1 °F -5.8 °F 72% 30.31 in 4.0 mi NNE 12.7 mph 17.3 mph N/A Snow Light Snow
6:15 AM 1.4 °F -16.1 °F -5.8 °F 72% 30.31 in 2.0 mi NNE 12.7 mph 19.6 mph N/A Snow Light Snow
6:35 AM -0.4 °F -16.7 °F -7.6 °F 72% 30.30 in 1.8 mi North 10.4 mph - N/A Snow Light Snow
6:55 AM -0.4 °F -19.2 °F -7.6 °F 72% 30.30 in 2.5 mi North 13.8 mph 20.7 mph N/A Snow Light Snow
7:15 AM -0.4 °F -16.7 °F -5.8 °F 78% 30.31 in 3.0 mi NNE 10.4 mph - N/A Snow Light Snow
7:30 AM -0.4 °F -16.7 °F -7.6 °F 72% 30.32 in 2.5 mi North 10.4 mph 20.7 mph N/A Snow Light Snow
7:55 AM -0.4 °F -17.6 °F -7.6 °F 72% 30.35 in 1.8 mi NNE 11.5 mph 20.7 mph N/A Snow Light Snow
8:15 AM -2.2 °F -19.9 °F -7.6 °F 78% 30.37 in 1.0 mi North 11.5 mph 20.7 mph N/A Snow Light Snow
8:35 AM -2.2 °F -22.2 °F -7.6 °F 78% 30.40 in 0.8 mi North 15.0 mph 20.7 mph N/A Snow Light Snow
8:55 AM -2.2 °F -18.9 °F -7.6 °F 78% 30.41 in 0.8 mi North 10.4 mph 18.4 mph N/A Snow Light Snow
9:15 AM -2.2 °F -18.9 °F -9.4 °F 71% 30.42 in 0.8 mi North 10.4 mph - N/A Snow Light Snow
9:35 AM -2.2 °F -18.0 °F -9.4 °F 71% 30.41 in 0.8 mi NNE 9.2 mph - N/A Snow Light Snow
9:55 AM -2.2 °F -18.0 °F -7.6 °F 78% 30.41 in 0.8 mi North 9.2 mph - N/A Snow Light Snow
10:15 AM -2.2 °F -20.7 °F -9.4 °F 71% 30.43 in 1.5 mi North 12.7 mph 19.6 mph N/A Snow Light Snow
10:35 AM -2.2 °F -18.0 °F -9.4 °F 71% 30.43 in 0.8 mi North 9.2 mph - N/A Snow Light Snow
10:55 AM -0.4 °F -16.7 °F -9.4 °F 66% 30.46 in 2.0 mi North 10.4 mph - N/A Snow Light Snow
11:15 AM -0.4 °F -16.7 °F -9.4 °F 66% 30.44 in 1.8 mi NNE 10.4 mph 17.3 mph N/A Snow Light Snow
11:35 AM -0.4 °F -17.6 °F -9.4 °F 66% 30.43 in 7.0 mi NNE 11.5 mph - N/A Snow Light Snow
11:55 AM -0.4 °F -19.2 °F -9.4 °F 66% 30.43 in 7.0 mi North 13.8 mph - N/A Snow Light Snow
12:15 PM -0.4 °F -18.4 °F -11.2 °F 60% 30.43 in 5.0 mi NNE 12.7 mph 17.3 mph N/A Snow Light Snow
12:35 PM -0.4 °F -17.6 °F -9.4 °F 66% 30.42 in 1.8 mi North 11.5 mph - N/A Snow Light Snow
12:55 PM -0.4 °F -15.7 °F -9.4 °F 66% 30.43 in 1.2 mi North 9.2 mph - N/A Snow Light Snow
1:15 PM -0.4 °F -18.4 °F -9.4 °F 66% 30.41 in 1.2 mi North 12.7 mph 16.1 mph N/A Snow Light Snow
1:35 PM -2.2 °F -18.9 °F -9.4 °F 71% 30.40 in 3.0 mi North 10.4 mph 17.3 mph N/A Snow Light Snow
1:55 PM -0.4 °F -14.7 °F -9.4 °F 66% 30.42 in 2.0 mi North 8.1 mph - N/A Snow Light Snow
2:15 PM -2.2 °F -19.9 °F -9.4 °F 71% 30.42 in 1.5 mi North 11.5 mph - N/A Snow Light Snow
2:35 PM -0.4 °F -15.7 °F -9.4 °F 66% 30.41 in 1.2 mi NNE 9.2 mph - N/A Snow Light Snow
2:55 PM -2.2 °F -18.0 °F -7.6 °F 78% 30.41 in 0.5 mi NNE 9.2 mph - N/A Snow Light Snow
3:15 PM -2.2 °F -16.8 °F -7.6 °F 78% 30.42 in 0.5 mi North 8.1 mph - N/A Snow Snow
3:35 PM -0.4 °F -15.7 °F -9.4 °F 66% 30.43 in 2.0 mi North 9.2 mph - N/A Snow Light Snow
3:55 PM -0.4 °F -16.7 °F -9.4 °F 66% 30.43 in 7.0 mi North 10.4 mph - N/A Snow Light Snow
4:15 PM -0.4 °F -15.7 °F -9.4 °F 66% 30.44 in 10.0 mi North 9.2 mph - N/A   Overcast
4:35 PM -0.4 °F -16.7 °F -9.4 °F 66% 30.43 in 7.0 mi North 10.4 mph - N/A   Overcast
4:55 PM -0.4 °F -15.7 °F -7.6 °F 72% 30.42 in 2.5 mi NNE 9.2 mph - N/A Snow Light Snow
5:15 PM -0.4 °F -15.7 °F -9.4 °F 66% 30.44 in 3.0 mi North 9.2 mph - N/A Snow Light Snow
5:35 PM -0.4 °F -17.6 °F -9.4 °F 66% 30.45 in 7.0 mi NNW 11.5 mph - N/A Snow Light Snow
5:55 PM -2.2 °F -19.9 °F -11.2 °F 66% 30.44 in 10.0 mi North 11.5 mph 17.3 mph N/A   Overcast
6:15 PM -2.2 °F -16.8 °F -9.4 °F 71% 30.44 in 10.0 mi North 8.1 mph 16.1 mph N/A   Overcast
6:35 PM -2.2 °F -18.0 °F -9.4 °F 71% 30.43 in 7.0 mi North 9.2 mph - N/A   Overcast
6:55 PM -2.2 °F -16.8 °F -9.4 °F 71% 30.43 in 7.0 mi North 8.1 mph - N/A   Overcast
7:15 PM -2.2 °F -18.9 °F -9.4 °F 71% 30.45 in 7.0 mi North 10.4 mph - N/A   Overcast
7:35 PM -2.2 °F -18.0 °F -9.4 °F 71% 30.46 in 10.0 mi North 9.2 mph - N/A   Overcast
7:55 PM -2.2 °F -19.9 °F -11.2 °F 66% 30.45 in 10.0 mi North 11.5 mph - N/A   Overcast
8:15 PM -2.2 °F -18.9 °F -11.2 °F 66% 30.46 in 10.0 mi NNW 10.4 mph 16.1 mph N/A   Overcast
8:35 PM -4.0 °F -19.0 °F -11.2 °F 71% 30.47 in 10.0 mi North 8.1 mph 18.4 mph N/A   Mostly Cloudy
8:55 PM -4.0 °F -19.0 °F -13.0 °F 65% 30.47 in 10.0 mi North 8.1 mph - N/A   Mostly Cloudy
9:15 PM -2.2 °F -18.9 °F -13.0 °F 60% 30.48 in 10.0 mi NNW 10.4 mph - N/A   Overcast
9:35 PM -2.2 °F -19.9 °F -13.0 °F 60% 30.47 in 10.0 mi North 11.5 mph - N/A   Overcast
9:55 PM -2.2 °F -18.9 °F -13.0 °F 60% 30.48 in 10.0 mi North 10.4 mph 16.1 mph N/A   Overcast
10:15 PM -2.2 °F -18.9 °F -14.8 °F 55% 30.49 in 10.0 mi North 10.4 mph - N/A   Overcast
10:35 PM -2.2 °F -18.9 °F -14.8 °F 55% 30.50 in 10.0 mi North 10.4 mph 17.3 mph N/A   Overcast
10:55 PM -2.2 °F -19.9 °F -14.8 °F 55% 30.50 in 10.0 mi North 11.5 mph - N/A   Overcast
11:15 PM -4.0 °F -22.1 °F -14.8 °F 60% 30.50 in 10.0 mi NNW 11.5 mph 16.1 mph N/A   Overcast
11:35 PM -5.8 °F -23.4 °F -14.8 °F 65% 30.51 in 10.0 mi North 10.4 mph - N/A   Overcast
11:55 PM -5.8 °F -21.2 °F -14.8 °F 65% 30.50 in 10.0 mi North 8.1 mph - N/A   Overcast